Wind_Speed
11 11 12 12 13 12 10 10 10 10 9 9 8 8 8 6 5 4 5 6 7 7 7 7 7 6 6 6 7 9 10 11 11 11 11 11 11 11 10 10 9 9 8 8 7 7 6 6 6
10 11 10 11 13 10 9 9 9 9 9 9 8 8 7 6 5 4 4 5 6 6 6 7 6 6 6 6 7 8 10 10 11 11 10 11 11 10 10 9 9 8 8 7 7 6 6 6 6
9 9 10 11 11 9 8 8 8 9 9 8 9 8 7 6 5 4 4 4 5 5 5 6 6 6 6 7 7 8 9 9 10 10 10 10 10 9 9 8 8 7 7 7 6 6 6 6 5
9 8 9 10 8 7 7 7 8 8 8 8 8 9 8 7 5 4 3 3 3 4 4 5 5 6 6 7 8 8 9 9 9 10 9 9 9 8 8 7 7 7 6 6 6 6 6 5 5
8 8 9 8 7 7 7 7 8 8 8 8 8 8 8 7 5 4 3 2 2 3 3 5 5 6 6 7 8 8 9 9 9 9 9 9 8 7 7 6 6 6 6 5 5 5 5 5 5
7 8 8 6 7 7 7 7 8 8 8 8 8 7 7 7 6 4 2 2 1 1 2 4 6 6 7 7 8 8 8 9 9 9 8 8 8 7 7 6 5 5 5 5 5 5 4 4 4
5 6 6 5 6 6 6 6 7 8 8 7 7 7 6 6 5 5 3 2 1 1 1 3 5 6 7 8 8 9 9 9 9 8 8 8 7 7 6 6 5 4 4 4 4 4 4 4 4
3 4 4 4 5 5 6 6 6 7 7 6 6 6 6 6 5 4 3 2 1 0 1 3 4 6 7 8 9 9 9 9 9 8 8 8 7 7 6 5 5 4 4 4 4 4 3 4 3
2 2 2 3 4 4 5 5 5 6 6 6 5 6 6 6 5 4 4 3 2 2 2 3 4 6 7 8 9 9 9 9 9 8 8 8 7 7 6 5 4 4 3 3 3 3 3 3 3
2 1 2 2 3 4 4 4 4 5 5 5 5 5 6 6 5 4 4 4 3 3 3 4 5 6 7 8 9 9 9 9 9 9 8 8 7 7 6 5 4 4 3 3 3 3 3 3 3
4 4 4 3 3 3 3 3 3 5 5 6 5 5 5 6 5 5 4 4 4 4 4 5 6 7 8 9 9 9 10 10 10 10 9 9 8 7 6 6 5 4 3 3 3 3 2 3 3
6 6 6 5 4 4 3 2 3 4 4 5 5 5 5 6 6 6 5 5 5 5 6 7 8 8 9 9 9 10 10 11 11 11 10 10 9 8 8 7 6 5 4 3 3 2 2 2 2
8 8 8 7 6 5 5 4 4 5 5 5 5 5 6 6 7 7 8 8 6 6 7 7 9 10 10 10 10 10 11 12 12 12 11 11 10 10 9 8 7 6 5 4 3 3 2 2 2
10 10 9 9 8 7 6 5 5 6 6 6 6 6 7 7 7 8 9 9 8 8 7 7 9 10 11 11 12 12 13 13 13 13 12 11 11 11 10 10 9 8 6 5 4 4 3 3 3
11 11 10 10 10 9 7 7 6 7 7 7 8 8 9 9 9 9 9 9 9 8 7 7 9 10 12 13 13 14 14 14 14 14 14 13 12 12 11 11 11 9 8 7 5 5 4 4 3
13 12 12 12 11 10 8 8 9 8 8 8 9 9 9 10 10 10 10 10 9 9 9 9 10 11 11 12 13 14 14 15 16 15 15 15 14 13 12 13 12 11 9 8 7 6 5 5 4
14 13 13 14 12 11 10 10 11 9 9 10 10 10 10 11 11 11 11 11 10 11 11 12 12 13 13 12 13 14 15 15 16 16 17 16 15 14 14 14 14 13 11 9 8 7 7 6 6
15 15 15 15 14 13 12 11 12 10 10 10 11 11 11 11 11 11 11 12 12 12 13 13 13 12 13 14 15 15 15 15 16 17 18 17 17 16 15 15 15 14 12 11 10 9 8 7 7
17 17 17 17 15 14 13 12 12 11 11 11 11 11 12 12 12 13 13 13 14 14 14 14 13 13 13 15 16 16 16 15 16 17 17 18 18 17 15 15 15 15 14 12 12 10 10 9 8
18 18 18 18 17 15 14 13 13 13 12 12 12 12 12 13 13 13 13 14 15 15 15 16 15 13 13 14 16 17 18 17 17 16 17 18 18 18 16 15 15 15 15 14 12 12 11 10 9
19 19 20 19 17 16 14 14 14 13 12 12 12 13 14 13 14 14 14 15 15 15 16 16 15 13 13 14 16 17 18 19 18 18 18 18 20 20 18 17 16 16 16 15 14 14 13 12 11
20 20 21 20 17 17 14 13 15 13 13 13 13 14 15 15 15 15 15 15 15 15 16 16 16 14 14 14 15 16 17 18 18 18 19 19 20 20 20 19 18 17 17 16 16 15 15 13 12
22 21 21 20 19 17 16 13 14 14 13 13 13 14 15 15 15 15 15 15 15 15 16 16 16 15 14 14 15 15 16 18 18 18 18 19 19 20 20 20 19 18 17 17 17 16 16 15 14
22 21 20 19 18 18 16 14 14 14 13 13 14 14 14 15 15 14 15 15 14 15 15 15 14 14 14 14 14 14 15 18 19 18 17 18 19 19 19 19 19 19 18 18 18 18 17 17 16
22 20 19 19 19 18 17 15 15 14 13 14 14 13 14 14 14 14 13 14 14 15 14 14 12 11 12 12 12 13 15 16 17 17 18 18 19 19 19 19 19 20 20 19 19 19 19 18 18
22 21 19 17 16 16 17 16 15 14 13 13 13 14 13 14 14 13 13 13 13 13 12 11 10 10 10 11 11 11 13 14 16 17 18 18 19 19 20 20 20 20 21 20 20 20 20 20 19
24 22 20 19 18 15 16 16 14 13 13 13 13 13 13 13 13 12 12 12 12 11 9 9 8 8 9 9 9 10 11 12 14 16 19 19 19 20 20 20 20 21 21 22 21 21 21 21 21
24 22 22 20 18 15 16 15 14 13 12 13 13 13 12 12 11 11 11 11 10 9 8 7 7 8 8 8 9 10 11 12 13 14 16 18 19 20 20 20 20 21 21 22 22 21 22 22 21
24 23 22 20 19 15 13 14 14 13 13 12 11 12 12 11 11 10 10 9 8 8 8 8 8 8 8 8 9 10 11 12 13 14 14 16 18 18 19 19 21 21 22 23 22 22 22 23 23
23 22 21 20 19 17 14 15 15 13 13 12 11 11 12 11 11 10 9 9 8 7 7 7 8 8 8 9 9 10 10 11 11 12 13 15 17 18 18 19 20 21 22 22 22 23 23 24 24
Wind_Direction
79 74 72 70 68 67 68 68 69 74 75 77 81 85 86 92 110 122 127 138 139 140 140 140 145 149 153 152 146 138 131 125 120 116 111 107 104 101 97 93 90 90 92 92 91 94 96 100 103
81 76 73 68 71 65 64 66 69 70 72 75 75 78 83 84 95 113 125 142 148 153 153 151 155 160 163 160 154 148 140 132 126 121 116 111 107 103 99 94 92 91 92 92 93 96 96 100 103
82 77 72 68 74 73 67 66 69 68 67 67 68 69 73 78 90 108 126 141 152 164 162 161 166 169 172 170 165 157 149 141 133 126 121 116 111 107 103 98 94 93 93 93 93 95 96 99 103
80 79 71 69 69 67 63 62 65 61 61 62 61 60 62 66 76 97 121 145 157 170 175 172 178 182 182 180 173 165 156 149 141 133 128 122 117 113 109 103 99 97 96 96 95 93 97 98 100
79 77 73 70 62 58 55 58 56 57 55 56 53 52 53 55 66 85 107 131 158 181 190 191 195 196 192 188 181 172 163 156 149 140 136 130 124 120 115 111 106 104 100 98 96 95 97 94 98
79 73 74 68 56 51 45 46 47 46 49 47 44 45 47 51 57 67 81 112 147 190 207 206 204 208 203 196 187 180 172 165 158 150 145 139 132 127 124 119 114 112 106 103 101 97 95 95 99
73 74 75 62 48 42 37 36 36 34 38 39 41 41 42 44 50 53 53 60 90 165 207 210 205 207 205 199 193 186 181 174 166 160 154 150 143 137 133 127 123 120 113 107 106 102 96 92 100
56 65 60 52 45 38 34 31 26 24 26 31 38 39 35 31 35 38 37 29 16 254 229 214 212 211 210 205 200 195 189 182 175 170 166 161 156 149 144 135 131 128 120 114 110 106 100 94 103
14 41 28 31 38 30 26 24 16 12 15 22 27 29 28 25 25 22 18 5 336 283 253 233 224 221 219 215 211 206 199 193 188 182 179 173 169 163 157 148 143 139 132 124 117 111 105 104 118
315 324 298 347 17 15 15 14 8 6 2 6 7 12 19 21 20 16 6 354 335 305 270 247 234 226 222 220 216 213 209 204 200 193 189 185 182 179 175 167 158 155 144 133 129 124 124 123 126
286 280 292 310 336 350 355 355 352 353 343 344 345 351 3 7 8 358 349 338 327 306 284 267 247 237 230 226 227 225 220 214 208 204 199 195 193 194 192 184 177 171 160 152 146 138 143 138 136
278 280 284 291 302 313 315 317 330 334 320 327 331 334 337 340 347 350 343 323 311 302 286 268 253 243 234 228 232 234 227 220 216 213 209 204 203 204 201 198 196 191 182 176 173 163 166 157 151
273 278 278 281 285 290 293 299 306 304 299 305 314 319 320 319 324 329 328 324 312 304 294 274 258 245 235 231 232 237 230 224 222 218 217 215 215 213 209 207 205 203 198 195 193 185 185 183 161
269 274 277 277 278 279 280 287 293 296 290 290 293 300 306 311 315 317 319 321 313 307 297 278 261 247 244 242 240 239 235 232 229 226 225 224 223 221 217 210 210 211 211 211 208 205 199 195 180
264 270 275 275 277 277 279 283 285 288 285 283 280 285 293 300 307 311 317 321 316 311 304 285 263 254 251 247 246 244 238 236 233 231 230 229 227 225 222 213 212 215 217 217 216 210 204 201 190
259 264 268 273 274 275 276 273 279 284 284 283 279 280 286 291 299 304 310 316 314 312 308 298 275 259 252 248 245 243 238 238 236 235 233 233 230 228 226 216 214 214 216 217 220 218 211 207 201
255 259 263 272 272 273 270 263 271 281 282 281 282 280 282 286 295 303 306 309 309 306 304 300 290 267 254 249 247 246 244 241 239 238 237 235 229 226 227 221 216 215 216 217 221 224 219 213 209
250 253 258 265 268 268 268 266 271 277 279 278 279 279 278 280 288 294 296 302 305 306 307 305 295 278 262 252 251 249 246 242 241 239 237 234 229 228 226 223 219 218 218 220 221 224 223 220 215
247 249 254 260 264 265 267 269 272 275 278 276 277 276 274 277 285 289 290 297 302 305 305 308 294 284 268 256 252 248 247 244 240 237 236 232 229 229 225 223 220 220 219 220 223 225 221 221 218
246 247 252 258 261 263 267 269 271 273 278 275 274 274 275 275 282 286 289 292 298 301 301 305 298 285 273 262 256 252 247 244 238 237 236 232 226 225 226 223 221 220 219 221 222 222 222 224 225
244 244 248 255 261 262 265 271 272 274 277 276 274 274 276 277 280 284 290 292 296 298 300 301 299 287 277 268 261 252 245 240 241 239 240 233 230 227 226 221 218 219 219 223 223 224 226 226 228
242 243 246 251 255 259 261 262 272 273 275 274 272 274 277 278 279 282 287 291 295 296 297 298 298 287 276 269 260 254 246 241 240 239 236 231 228 226 225 222 221 223 223 224 225 226 226 228 231
239 242 245 249 251 254 260 256 266 273 270 269 271 273 273 275 277 282 285 288 291 292 296 300 295 285 275 269 264 255 250 243 239 238 236 231 227 227 226 226 224 224 224 224 226 227 228 228 231
238 240 245 249 252 253 257 258 262 268 266 266 270 272 272 277 277 281 285 287 289 292 296 298 293 282 269 264 260 255 249 242 240 238 237 232 228 227 228 229 226 226 227 227 229 229 230 231 233
235 237 242 246 250 254 257 256 256 261 260 264 270 272 275 276 277 280 285 286 288 293 295 295 285 280 269 266 264 253 243 238 239 239 237 233 230 229 229 230 228 228 229 230 232 233 233 235 236
234 234 235 240 249 254 258 254 257 260 260 265 266 270 273 274 277 280 283 284 286 292 293 293 285 276 268 262 260 249 242 240 241 239 235 234 233 233 232 230 231 231 230 232 235 237 237 237 238
232 231 231 237 240 241 254 257 258 259 259 261 263 269 271 271 275 281 284 287 289 290 290 292 284 280 269 260 255 246 242 245 244 241 236 235 234 231 230 232 233 234 234 234 236 239 239 239 240
229 229 229 231 237 240 252 259 262 258 256 259 264 268 271 271 272 277 281 286 289 290 289 290 290 280 277 267 254 250 250 249 244 238 236 238 234 230 229 232 233 234 235 235 236 239 241 241 242
228 228 229 230 233 235 248 257 256 254 254 259 261 267 267 270 270 273 276 282 288 293 289 285 289 283 276 269 262 258 255 251 248 249 244 237 233 231 232 234 236 237 237 237 239 242 243 242 244
227 228 230 232 237 236 235 252 254 252 253 256 262 266 268 269 270 271 271 276 281 291 294 291 289 285 283 274 265 262 258 255 256 254 246 237 234 235 234 234 235 236 237 238 240 242 245 245 247
Height
5899 5899 5899 5900 5900 5901 5900 5899 5898 5897 5896 5895 5894 5893 5893 5893 5894 5896 5894 5893 5893 5894 5894 5894 5895 5896 5897 5897 5898 5898 5898 5898 5898 5899 5899 5899 5900 5900 5900 5900 5900 5900 5900 5900 5900 5900 5900 5900 5900
5900 5900 5901 5901 5902 5903 5902 5900 5899 5898 5897 5896 5895 5894 5894 5893 5893 5893 5893 5893 5894 5894 5894 5895 5896 5897 5897 5898 5898 5898 5898 5899 5899 5899 5900 5900 5900 5901 5901 5901 5901 5901 5901 5901 5901 5901 5901 5901 5901
5901 5901 5902 5903 5903 5904 5903 5901 5900 5899 5897 5896 5896 5895 5895 5894 5893 5893 5893 5893 5894 5894 5895 5895 5896 5897 5898 5898 5898 5899 5899 5899 5899 5900 5900 5901 5901 5901 5901 5902 5902 5902 5902 5902 5902 5902 5901 5901 5901
5902 5902 5903 5904 5904 5904 5903 5902 5901 5899 5898 5897 5897 5896 5895 5894 5893 5893 5893 5893 5894 5894 5895 5895 5896 5897 5897 5898 5898 5899 5899 5899 5900 5900 5901 5901 5902 5902 5902 5902 5902 5902 5902 5902 5902 5902 5902 5902 5902
5902 5903 5904 5905 5904 5904 5903 5902 5901 5900 5899 5898 5897 5896 5895 5894 5893 5893 5893 5893 5893 5894 5895 5895 5896 5897 5897 5898 5898 5899 5899 5900 5900 5901 5901 5902 5902 5902 5903 5903 5903 5903 5903 5903 5903 5902 5902 5902 5902
5903 5904 5906 5906 5905 5904 5903 5902 5902 5901 5900 5899 5897 5896 5895 5895 5894 5893 5893 5893 5893 5893 5894 5894 5895 5896 5897 5898 5898 5899 5899 5900 5900 5901 5901 5902 5902 5903 5903 5903 5903 5903 5903 5903 5903 5903 5903 5903 5903
5904 5904 5906 5906 5906 5905 5904 5903 5902 5901 5900 5899 5898 5897 5895 5895 5894 5893 5893 5893 5893 5893 5893 5894 5895 5895 5896 5897 5898 5898 5899 5900 5900 5901 5901 5902 5902 5903 5903 5903 5903 5903 5903 5903 5903 5903 5903 5903 5903
5903 5905 5905 5906 5906 5905 5904 5903 5902 5901 5901 5900 5898 5897 5896 5895 5894 5893 5893 5892 5892 5892 5893 5893 5894 5895 5895 5896 5897 5898 5899 5899 5900 5901 5901 5902 5902 5902 5903 5903 5903 5903 5903 5903 5903 5903 5903 5903 5903
5902 5905 5905 5905 5905 5905 5904 5903 5903 5901 5900 5899 5898 5897 5896 5895 5894 5893 5893 5892 5892 5892 5892 5893 5893 5894 5895 5895 5896 5897 5898 5898 5899 5900 5901 5901 5902 5902 5902 5903 5903 5903 5903 5903 5904 5904 5904 5904 5904
5901 5903 5904 5904 5904 5904 5903 5903 5902 5901 5900 5899 5899 5897 5896 5895 5894 5893 5893 5892 5892 5891 5891 5892 5892 5893 5893 5894 5895 5895 5896 5897 5898 5899 5900 5900 5901 5902 5902 5902 5903 5903 5903 5903 5903 5903 5903 5903 5904
5900 5901 5901 5901 5902 5902 5902 5902 5901 5901 5900 5900 5899 5898 5896 5895 5894 5893 5892 5892 5891 5891 5891 5891 5891 5891 5892 5893 5893 5894 5895 5896 5897 5898 5899 5900 5900 5901 5901 5902 5902 5903 5903 5903 5903 5903 5903 5903 5904
5898 5898 5899 5899 5900 5901 5901 5901 5900 5900 5900 5899 5898 5897 5896 5895 5894 5893 5892 5891 5890 5890 5889 5889 5889 5889 5890 5891 5892 5893 5894 5894 5896 5896 5898 5898 5899 5900 5901 5901 5902 5902 5903 5903 5903 5903 5903 5903 5903
5896 5896 5897 5897 5898 5899 5899 5899 5899 5899 5898 5898 5897 5896 5895 5894 5893 5892 5891 5890 5889 5888 5887 5887 5887 5887 5888 5889 5890 5891 5892 5893 5894 5895 5896 5897 5898 5899 5899 5900 5901 5901 5902 5902 5903 5903 5903 5903 5903
5894 5894 5895 5895 5896 5897 5897 5898 5898 5898 5897 5896 5896 5895 5894 5893 5892 5891 5890 5889 5888 5887 5885 5885 5885 5885 5886 5887 5888 5889 5890 5891 5892 5893 5894 5895 5896 5897 5898 5899 5900 5901 5901 5902 5902 5902 5902 5903 5903
5892 5893 5893 5893 5894 5894 5896 5896 5896 5896 5895 5895 5894 5894 5893 5892 5891 5890 5889 5888 5886 5885 5884 5883 5883 5883 5883 5884 5885 5886 5887 5888 5889 5891 5892 5893 5894 5895 5896 5897 5898 5899 5900 5901 5901 5902 5902 5902 5902
5889 5890 5891 5891 5892 5892 5895 5895 5894 5893 5893 5893 5893 5892 5891 5891 5890 5888 5887 5886 5885 5884 5883 5882 5881 5880 5880 5881 5882 5883 5884 5886 5887 5888 5890 5891 5892 5893 5894 5895 5896 5898 5899 5900 5900 5901 5901 5902 5902
5887 5888 5888 5889 5889 5890 5891 5892 5892 5891 5891 5891 5891 5890 5890 5889 5888 5887 5885 5884 5883 5882 5881 5879 5878 5878 5878 5878 5879 5880 5882 5883 5884 5886 5887 5888 5890 5891 5892 5893 5895 5896 5897 5898 5899 5900 5901 5901 5902
5884 5885 5885 5885 5886 5887 5888 5889 5889 5889 5889 5889 5888 5888 5887 5887 5886 5885 5883 5882 5881 5880 5878 5877 5875 5875 5875 5875 5876 5877 5879 5880 5881 5883 5884 5885 5887 5888 5889 5891 5892 5894 5895 5897 5898 5899 5900 5900 5901
5880 5881 5881 5882 5882 5884 5885 5886 5886 5886 5886 5886 5886 5885 5885 5884 5883 5882 5881 5880 5878 5877 5875 5874 5872 5872 5871 5872 5873 5873 5875 5876 5877 5879 5881 5882 5883 5885 5886 5888 5890 5892 5893 5895 5896 5897 5898 5899 5900
5875 5877 5878 5878 5879 5881 5882 5882 5883 5883 5883 5883 5883 5883 5882 5881 5881 5880 5878 5877 5876 5874 5872 5871 5869 5867 5867 5868 5868 5869 5871 5873 5874 5876 5877 5878 5880 5882 5884 5886 5887 5889 5891 5893 5894 5895 5896 5898 5899
5871 5873 5874 5875 5876 5877 5879 5880 5880 5880 5880 5880 5880 5879 5879 5878 5877 5877 5875 5874 5872 5871 5869 5867 5865 5864 5864 5864 5864 5865 5867 5869 5870 5872 5873 5875 5877 5879 5881 5883 5885 5887 5889 5890 5892 5893 5894 5896 5897
5866 5868 5870 5871 5873 5875 5876 5879 5877 5877 5877 5877 5876 5876 5875 5875 5874 5873 5872 5870 5869 5867 5865 5863 5862 5861 5860 5860 5860 5861 5862 5864 5866 5867 5869 5871 5872 5875 5877 5879 5882 5884 5886 5888 5889 5891 5892 5894 5895
5862 5864 5866 5867 5869 5871 5872 5875 5876 5873 5874 5874 5873 5872 5872 5871 5870 5869 5868 5867 5865 5863 5862 5859 5858 5857 5856 5856 5856 5857 5858 5860 5862 5863 5865 5867 5869 5871 5874 5876 5878 5881 5883 5885 5887 5888 5890 5891 5893
5857 5860 5862 5864 5866 5868 5869 5871 5873 5871 5870 5870 5869 5869 5868 5867 5866 5865 5864 5863 5861 5860 5857 5855 5854 5853 5853 5853 5853 5853 5855 5856 5858 5860 5861 5863 5865 5867 5870 5872 5875 5877 5880 5882 5884 5885 5887 5889 5890
5853 5857 5859 5861 5863 5865 5865 5866 5868 5867 5866 5866 5866 5865 5864 5863 5862 5861 5860 5859 5858 5855 5853 5851 5850 5849 5849 5849 5850 5850 5851 5852 5854 5856 5858 5860 5862 5864 5866 5869 5871 5874 5876 5879 5880 5882 5884 5885 5887
5849 5853 5857 5860 5861 5862 5860 5862 5864 5862 5862 5862 5862 5861 5860 5860 5859 5858 5857 5856 5854 5852 5850 5849 5848 5847 5846 5847 5847 5847 5848 5850 5851 5852 5854 5856 5858 5860 5862 5865 5867 5869 5872 5874 5877 5878 5880 5881 5883
5844 5847 5852 5855 5856 5858 5858 5858 5859 5858 5858 5858 5858 5857 5857 5856 5856 5855 5854 5852 5851 5849 5848 5846 5845 5845 5844 5844 5844 5844 5846 5847 5847 5848 5850 5852 5854 5856 5858 5861 5863 5865 5868 5870 5872 5874 5876 5877 5879
5839 5842 5846 5849 5852 5854 5855 5855 5856 5854 5855 5855 5854 5853 5853 5853 5852 5852 5851 5850 5848 5847 5846 5845 5844 5844 5843 5842 5842 5843 5843 5844 5844 5845 5846 5848 5850 5852 5854 5856 5859 5861 5863 5865 5867 5869 5871 5873 5874
5834 5838 5841 5845 5848 5851 5853 5855 5851 5851 5851 5851 5851 5850 5850 5849 5849 5849 5848 5848 5846 5845 5844 5844 5843 5842 5842 5841 5841 5841 5841 5841 5842 5842 5843 5844 5846 5848 5850 5852 5854 5856 5859 5861 5863 5865 5866 5868 5869
5829 5833 5836 5840 5842 5845 5849 5852 5847 5847 5847 5848 5847 5847 5846 5846 5846 5846 5846 5846 5845 5844 5843 5842 5841 5841 5840 5839 5839 5838 5838 5838 5839 5839 5840 5841 5842 5844 5846 5848 5850 5852 5854 5856 5858 5859 5861 5862 5864